星链-31685 (STARLINK-31685 )

导读

STARLINK-31685是美国SpaceX星链星座的卫星,于2024年4月23日8点发射入轨,是星链互联网星座组网进程中的组成单元。星链项目旨在构建全球卫星互联网,该卫星承担为偏远地区等场景提供低延迟宽带接入的任务,依托一箭多星发射模式快速补网,助力推进星座全球覆盖能力的建设。

Basic Information
目录编号:
59578
目录名称:
STARLINK-31685
国际标识:
2024-076Q
轨道中心:
EARTH
卫星名称:
星链-31685
卫星全名:
星链-31685 (STARLINK-31685 )
卫星状态:
在轨 (已飞行872 天)
发射日期:
2024-04-23 UTC
国别 :
美国 (US)
星等 :
--
This satellite is enrolled in the Space Conjunction Data Service (SCDS) and the current flight risk assessment level is: No High Risk
Orbit Information
数据来源 国际轨道数据
星历时间: 2026-09-12T00:38:06+0800
9小时前
查看轨道信息
半长轴: 6861.202km
偏心率: 0.0000893
轨道倾角: 43.001°
近地点辐角 262.077°
升交点赤经 38.186°
平近点角 97.998°
近地点: 482.452km
远地点: 483.678km
周期: 94.267分钟
每日圈数: 15.275749
Detailed Information
固有亮度:
5
最大亮度:
1.5
卫星平台:
Starlink v2.0 mini
覆盖范围:
全球
运营商:
太空探索技术公司
运营商所在国:
美国
制造商(研发单位):
太空探索技术公司
制造商所在国:
美国
使用方式:
暂无
Satellite Introduction
星链(Starlink)计划是由太空探索技术公司(SpaceX)提出的一个巨型低轨卫星互联网星座项目,计划在2019年至2024年间在太空搭建由约1.2万颗卫星组成的“星链”网络,其中1584颗将部署在地球上空550千米处的近地轨道,并从2020年开始工作。该卫星仍在工作。
2D Orbit Map
3D Orbit Map
Orbit Altitude Analysis Chart
Orbit Inclination Analysis Chart
Orbit Comprehensive Analysis Chart
View Comprehensive Chart
Conjunction Data List
Event ID Objects TCA Miss Dist (km) Collision Risk Probability Collision Risk Index (CRI) Action
CDM_260913-134605-957806-696021
2026-09-13T
13:46:30+0000
0.531 km
远距离
4.433098E-5 中风险 0.68
CDM_260913-073605-957806-320021
2026-09-13T
07:36:17+0000
0.893 km
远距离
2.219829E-5 中风险 0.62
CDM_260914-090305-957806-252421
2026-09-14T
09:03:56+0000
1.110 km
极远距离
1.434928E-5 中风险 0.58
CDM_260913-124805-957806-642221
2026-09-13T
12:48:01+0000
1.270 km
极远距离
7.432205E-6 低风险 0.52
CDM_260913-161405-957806-320021
2026-09-13T
16:14:07+0000
1.256 km
极远距离
6.880359E-6 低风险 0.52
CDM_260914-034205-957806-642221
2026-09-14T
03:42:29+0000
1.811 km
极远距离
2.44206E-6 低风险 0.43
CDM_260913-062405-957806-735621
2026-09-13T
06:24:33+0000
2.084 km
极远距离
2.001539E-6 低风险 0.41
CDM_260913-142205-957806-642221
2026-09-13T
14:22:10+0000
1.988 km
极远距离
1.915724E-6 低风险 0.41
CDM_260914-002705-957806-735621
2026-09-14T
00:27:19+0000
2.263 km
极远距离
1.666268E-6 低风险 0.39
CDM_260913-143905-957806-320021
2026-09-13T
14:39:58+0000
2.025 km
极远距离
1.655357E-6 低风险 0.39
Miss Distance Evolution Trend with All Objects
Collision Probability Evolution Trend with All Objects